Temp
-7 -7 -7 -7 -7 -7 -7 -7 -7 -7 -7 -7 -7 -8 -8 -8 -9 -9 -9 -10 -10 -10 -10 -10 -11 -11 -10 -11 -11 -10 -10 -10 -10
-8 -8 -8 -8 -7 -7 -7 -8 -8 -8 -8 -8 -8 -8 -8 -9 -9 -9 -10 -10 -10 -10 -10 -11 -11 -11 -11 -11 -11 -11 -11 -10 -10
-8 -8 -8 -8 -8 -8 -8 -8 -8 -8 -8 -8 -8 -8 -9 -9 -10 -10 -10 -10 -11 -11 -11 -11 -11 -11 -11 -11 -11 -11 -11 -11 -11
-9 -9 -9 -9 -9 -9 -9 -9 -9 -9 -9 -9 -9 -9 -9 -9 -10 -10 -10 -11 -11 -11 -11 -11 -11 -11 -12 -12 -12 -12 -12 -12 -12
-10 -10 -9 -10 -10 -10 -10 -10 -10 -10 -10 -10 -10 -10 -10 -10 -10 -11 -11 -11 -11 -12 -12 -12 -12 -12 -12 -12 -12 -12 -12 -12 -12
-10 -10 -10 -10 -10 -10 -10 -10 -11 -11 -11 -11 -11 -11 -11 -11 -11 -11 -11 -11 -12 -12 -12 -12 -12 -12 -12 -12 -12 -12 -12 -12 -12
-10 -10 -10 -10 -11 -10 -11 -11 -11 -11 -11 -12 -11 -11 -11 -11 -12 -12 -12 -11 -12 -12 -12 -12 -12 -12 -12 -12 -12 -13 -13 -13 -13
-11 -10 -10 -10 -10 -10 -11 -11 -11 -12 -12 -12 -12 -12 -12 -12 -12 -12 -12 -12 -12 -12 -12 -12 -12 -12 -12 -12 -13 -13 -13 -13 -13
-10 -10 -10 -11 -11 -11 -11 -11 -11 -11 -12 -12 -12 -12 -13 -13 -12 -12 -12 -12 -12 -12 -12 -12 -12 -12 -12 -12 -13 -13 -13 -13 -13
-10 -11 -10 -10 -11 -11 -11 -11 -11 -11 -11 -12 -12 -12 -13 -13 -13 -13 -13 -13 -13 -13 -13 -13 -13 -13 -13 -13 -13 -13 -13 -13 -14
-11 -11 -10 -11 -11 -11 -11 -11 -11 -11 -11 -12 -12 -12 -12 -13 -13 -13 -13 -13 -13 -13 -13 -13 -13 -13 -13 -13 -13 -13 -13 -13 -14
-10 -11 -11 -11 -11 -11 -11 -11 -11 -11 -11 -11 -12 -12 -12 -13 -13 -13 -13 -13 -13 -13 -13 -13 -14 -14 -13 -13 -13 -13 -13 -14 -14
-11 -11 -11 -11 -11 -11 -12 -12 -12 -12 -12 -12 -12 -12 -12 -12 -13 -13 -13 -13 -14 -14 -14 -14 -14 -14 -14 -14 -13 -13 -13 -13 -13
-11 -11 -11 -11 -12 -12 -12 -12 -12 -12 -12 -12 -12 -12 -12 -12 -12 -13 -13 -13 -13 -13 -13 -13 -14 -14 -14 -14 -14 -14 -14 -14 -14
-11 -11 -11 -11 -12 -12 -12 -12 -12 -12 -12 -13 -12 -12 -12 -12 -12 -13 -13 -13 -13 -13 -13 -13 -13 -13 -14 -14 -14 -14 -14 -14 -14
-12 -12 -12 -12 -12 -12 -12 -12 -13 -13 -13 -13 -13 -13 -13 -13 -13 -13 -13 -13 -13 -13 -13 -13 -13 -13 -13 -13 -14 -14 -14 -14 -14
-12 -12 -12 -12 -12 -13 -13 -13 -13 -13 -13 -13 -13 -13 -13 -14 -13 -13 -14 -14 -14 -14 -14 -14 -14 -13 -14 -14 -14 -14 -14 -14 -14
-12 -12 -12 -12 -12 -13 -13 -13 -13 -13 -13 -13 -13 -13 -14 -14 -14 -14 -13 -14 -14 -14 -14 -14 -14 -14 -14 -14 -14 -14 -14 -14 -14
-12 -12 -12 -12 -13 -13 -13 -13 -13 -13 -13 -13 -13 -13 -13 -13 -14 -14 -14 -14 -14 -14 -14 -14 -15 -15 -14 -14 -14 -14 -15 -14 -14
-12 -12 -12 -13 -13 -13 -13 -13 -13 -13 -13 -13 -13 -13 -13 -13 -14 -14 -14 -14 -15 -14 -15 -15 -15 -15 -15 -15 -15 -15 -15 -15 -15
Height
5876 5875 5875 5875 5873 5872 5871 5870 5870 5869 5868 5868 5867 5867 5866 5865 5864 5864 5863 5862 5861 5860 5859 5859 5858 5857 5855 5854 5854 5852 5850 5849 5848
5872 5871 5871 5871 5870 5869 5868 5867 5866 5866 5865 5865 5864 5863 5862 5862 5861 5860 5859 5858 5858 5857 5856 5855 5854 5853 5852 5851 5850 5847 5846 5845 5843
5869 5868 5867 5867 5866 5866 5865 5864 5864 5863 5862 5861 5861 5860 5859 5858 5857 5856 5855 5855 5853 5852 5852 5850 5850 5849 5848 5846 5845 5844 5843 5841 5840
5865 5865 5864 5863 5862 5862 5861 5860 5859 5859 5858 5857 5857 5856 5855 5854 5854 5853 5851 5850 5850 5848 5847 5846 5845 5845 5844 5842 5841 5840 5838 5837 5836
5861 5861 5860 5859 5857 5857 5856 5856 5855 5855 5854 5854 5853 5852 5851 5850 5850 5848 5847 5847 5846 5844 5843 5841 5841 5839 5838 5837 5836 5835 5834 5833 5832
5857 5857 5856 5855 5854 5853 5853 5852 5851 5851 5851 5850 5849 5847 5846 5845 5844 5843 5842 5841 5841 5840 5838 5837 5836 5834 5833 5832 5831 5829 5829 5828 5827
5852 5852 5851 5850 5850 5849 5848 5847 5847 5846 5846 5845 5845 5844 5843 5842 5841 5839 5838 5836 5836 5834 5833 5832 5830 5829 5828 5826 5825 5824 5823 5822 5822
5847 5847 5846 5846 5845 5845 5844 5843 5842 5841 5841 5840 5840 5839 5838 5837 5836 5835 5834 5831 5831 5830 5829 5827 5825 5823 5822 5821 5820 5819 5819 5817 5816
5842 5842 5842 5841 5841 5840 5840 5838 5837 5837 5836 5836 5834 5834 5833 5832 5831 5830 5829 5827 5825 5825 5824 5822 5820 5818 5817 5816 5815 5813 5813 5812 5811
5838 5837 5837 5836 5835 5835 5834 5833 5832 5831 5831 5830 5829 5828 5827 5826 5825 5825 5824 5822 5821 5819 5818 5817 5816 5813 5812 5810 5809 5808 5807 5806 5805
5833 5832 5832 5831 5830 5829 5829 5828 5827 5826 5825 5824 5823 5822 5821 5820 5819 5818 5817 5816 5816 5814 5812 5811 5810 5808 5806 5804 5802 5801 5800 5799 5798
5828 5827 5826 5825 5823 5823 5823 5822 5822 5821 5821 5819 5818 5817 5815 5815 5813 5812 5811 5811 5809 5808 5806 5804 5803 5801 5799 5798 5797 5795 5794 5793 5792
5821 5820 5819 5819 5817 5817 5816 5816 5815 5816 5815 5814 5812 5811 5810 5809 5807 5807 5806 5805 5802 5801 5800 5798 5796 5794 5793 5792 5792 5790 5788 5787 5786
5814 5813 5812 5812 5811 5810 5809 5809 5808 5809 5808 5808 5806 5805 5804 5803 5801 5800 5799 5798 5797 5795 5793 5792 5791 5789 5787 5786 5785 5784 5782 5781 5779
5805 5805 5804 5803 5804 5804 5802 5801 5800 5801 5800 5799 5799 5798 5797 5797 5795 5794 5792 5791 5790 5788 5787 5786 5784 5783 5781 5779 5778 5777 5776 5774 5773
5796 5797 5796 5795 5795 5795 5794 5793 5793 5792 5792 5791 5792 5790 5790 5789 5787 5785 5785 5784 5782 5780 5779 5779 5777 5776 5774 5773 5771 5770 5768 5767 5765
5787 5786 5786 5785 5784 5784 5784 5784 5784 5784 5783 5783 5783 5782 5782 5781 5778 5776 5776 5775 5774 5773 5771 5770 5769 5768 5767 5765 5764 5762 5759 5758 5756
5774 5775 5774 5774 5774 5774 5774 5774 5774 5774 5774 5774 5774 5774 5773 5771 5770 5769 5768 5766 5765 5764 5762 5761 5760 5759 5758 5756 5754 5752 5750 5749 5747
5762 5762 5761 5762 5763 5763 5764 5764 5764 5763 5765 5763 5764 5763 5763 5762 5761 5760 5759 5758 5755 5754 5753 5752 5750 5749 5748 5746 5744 5742 5740 5739 5737
5748 5748 5747 5749 5750 5750 5751 5751 5752 5753 5752 5753 5753 5753 5752 5751 5751 5749 5749 5748 5747 5746 5743 5742 5739 5738 5736 5734 5733 5731 5729 5726 5725
Wind_Speed
18 19 18 18 18 18 19 19 19 19 18 19 19 19 19 20 20 21 21 21 20 19 19 19 20 20 22 23 23 22 22 22 22
20 19 20 20 19 18 17 16 16 18 19 19 21 21 20 20 20 20 20 20 19 20 21 21 22 23 24 24 23 23 24 22 21
22 21 21 21 21 21 21 21 22 22 23 23 22 21 21 20 21 20 21 20 20 22 23 24 24 25 25 25 25 24 23 21 20
23 23 23 22 22 22 22 23 23 23 23 22 22 21 22 22 22 22 23 23 23 24 25 27 27 28 27 27 27 26 24 23 20
24 25 25 25 24 24 24 23 24 23 23 23 23 23 22 23 24 24 25 26 25 27 28 29 30 30 30 29 28 28 28 24 23
25 25 25 24 24 23 23 23 23 23 23 23 23 23 23 22 23 24 25 26 27 28 29 30 30 31 31 31 31 29 27 25 25
25 24 23 23 23 22 22 23 23 23 23 24 24 23 24 24 24 23 25 26 25 26 27 28 29 29 29 29 28 26 25 25 25
25 23 22 23 23 23 23 24 24 24 24 24 24 24 24 25 25 25 25 28 28 27 28 28 28 27 27 27 27 26 27 27 27
26 24 24 24 24 25 25 26 26 26 25 25 24 25 25 25 25 26 26 27 27 28 28 27 27 27 27 27 28 28 28 28 29
28 27 26 26 27 26 27 27 26 26 26 25 25 25 25 25 25 25 25 25 26 25 24 26 26 26 27 28 29 29 30 30 30
29 30 30 29 29 29 28 28 26 25 25 25 25 24 25 25 25 25 25 25 26 26 26 27 27 27 27 29 30 30 30 30 32
33 34 32 32 32 32 30 29 28 27 26 26 25 25 26 26 26 26 25 26 26 28 28 28 28 29 29 28 28 28 29 29 30
37 38 37 36 34 35 33 32 31 29 28 28 27 27 27 27 27 27 28 28 27 26 27 28 29 27 28 28 29 29 29 28 29
40 40 40 40 38 37 37 35 34 32 31 30 30 28 28 29 29 29 29 28 27 26 26 27 27 27 27 28 29 29 28 29 30
44 43 43 42 41 40 39 38 37 35 33 33 32 31 32 31 33 33 30 29 29 28 28 28 27 27 28 28 27 27 28 29 30
48 47 46 46 45 44 43 42 38 38 37 35 34 33 33 32 35 38 35 33 32 31 30 30 29 29 30 30 31 32 32 33 33
50 50 50 49 48 47 47 46 44 42 41 39 36 36 34 33 35 37 39 39 37 35 33 32 32 33 33 34 35 36 37 36 36
52 52 52 51 51 50 50 49 47 46 44 42 42 40 39 37 36 36 41 37 40 40 37 33 36 36 36 38 39 39 41 42 41
53 53 55 55 54 53 51 50 49 49 46 46 42 41 41 40 39 38 36 38 38 37 37 37 37 39 43 44 42 44 47 46 47
58 57 57 54 55 55 54 52 51 51 51 49 46 44 43 43 42 43 42 41 41 45 45 44 37 41 45 47 45 50 50 50 50
Wind_Direction
292 292 292 290 288 288 289 290 289 291 293 292 292 289 285 284 283 283 283 285 287 287 285 284 285 290 293 295 297 296 297 295 289
291 290 291 293 292 291 291 293 293 295 296 296 294 288 284 284 283 281 281 282 283 283 283 284 284 289 292 294 298 300 302 301 295
288 289 288 287 285 285 287 289 291 294 294 293 291 290 289 289 288 286 283 282 281 280 279 281 284 288 291 294 297 300 301 298 294
286 286 286 285 286 286 285 285 286 286 287 286 287 288 289 288 287 285 283 283 281 280 281 284 287 289 291 294 297 298 300 296 293
285 286 285 284 284 283 285 285 285 285 285 285 287 287 288 287 288 286 284 282 281 282 283 285 287 288 289 291 292 294 296 291 289
281 280 281 281 281 282 283 283 284 284 284 284 283 282 281 282 283 282 283 283 283 283 284 285 287 288 289 290 291 292 290 286 285
280 280 280 282 281 281 280 279 280 280 280 281 281 282 282 283 283 283 284 286 286 287 288 290 291 291 292 292 292 292 289 286 283
281 282 284 282 282 280 279 279 278 277 278 278 279 279 280 281 282 284 285 286 288 289 290 290 291 292 293 295 294 293 291 288 285
280 281 280 281 282 283 283 280 280 281 281 281 281 281 280 279 280 280 282 284 288 290 291 293 295 296 296 295 292 290 288 287 285
281 279 278 276 277 278 278 278 279 280 281 282 281 282 281 281 280 281 283 284 285 287 291 295 295 294 294 293 291 288 287 286 285
278 278 277 276 275 276 275 277 277 276 278 280 281 282 282 279 279 279 279 280 282 285 289 290 291 291 293 293 292 289 286 284 284
276 273 272 271 271 273 273 274 275 277 278 279 282 283 281 280 278 278 279 280 281 286 288 289 288 288 289 291 292 291 289 286 285
273 272 271 269 269 271 273 272 274 275 277 278 279 280 280 279 278 280 281 281 283 287 290 292 292 291 289 287 289 293 290 287 288
271 272 271 269 267 269 271 271 272 273 275 276 275 279 280 281 281 279 280 282 283 286 289 292 295 293 289 287 287 288 288 288 287
268 268 269 270 269 269 271 270 271 272 273 272 275 279 279 281 283 282 280 280 280 281 285 287 290 292 288 287 289 287 286 286 285
267 267 267 268 267 266 267 270 271 270 271 273 276 275 279 281 284 280 281 280 278 277 279 281 284 287 289 289 287 286 284 284 282
266 266 265 264 263 263 264 266 269 270 271 272 274 276 276 280 283 278 276 277 277 272 273 277 283 286 287 286 286 285 284 282 280
263 263 262 262 263 262 263 264 266 267 269 274 276 273 273 276 280 283 282 286 277 269 271 273 277 281 283 284 283 285 285 285 284
264 262 262 262 261 260 262 262 266 266 270 271 273 269 272 273 277 278 278 285 288 278 286 291 282 281 277 281 281 281 284 284 284
266 263 261 258 260 260 259 257 259 264 266 268 268 268 272 274 274 277 279 281 279 283 285 288 281 287 283 275 275 279 282 282 283